Location: B?jaj?g
(11.7167°N, 92.6667°E)
Time: 01:36:42
(UTC+00:00)

CSL-04 Debris - Pass Details

Date: 18 September 2020
Orbit: 827 x 847 km, 98.9° (Epoch: 30 October)

Event Time Altitude Azimuth Distance (km) Brightness Sun altitude
Rises 13:00:40 0° 163° (SSE) 3,372 7.1 -18.6°
Reaches altitude 10° 13:03:01 10° 162° (SSE) 2,436 6.4 -19.2°
Maximum altitude 13:08:24 76° 77° (ENE) 856 4.0 -20.5°
Drops below altitude 10° 13:13:46 10° 352° (N) 2,426 6.7 -21.8°
Sets 13:16:07 0° 351° (N) 3,358 7.5 -22.3°
